Weather Roundup
Issued by NWS Corpus Christi, TX

Home | Current Version | Previous Version | Text Only | Print | Product List | Glossary On
Versions: 1 2 3 4 5 6 7 8 9 10 11 12 13 14 15 16 17 18 19 20 21 22 23 24 25 26 27 28 29 30 31 32 33 34 35 36 37 38 39 40 41 42 43 44 45 46 47 48 49 50
000
ASUS44 KCRP 051010
HRRCRP

SOUTH TEXAS REGIONAL WEATHER ROUNDUP
NATIONAL WEATHER SERVICE CORPUS CHRISTI TX
500 AM CDT SAT SEP 05 2015


TXZ229>244-051100-
...CORPUS CHRISTI AREA OBSERVATIONS...

CITY           SKY/WX    TMP DP  RH WIND       PRES   REMARKS
CORPUS CHRISTI PTCLDY    80  77  90 SE7       29.93S
NAS CORPUS CHR PTCLDY    83  79  88 S12       29.93S HX  94
ROCKPORT       CLEAR     84  79  85 S7        29.92F HX  96
KINGSVILLE NAS PTCLDY    81  81 100 SE7       29.93S HX  92
ALICE          CLOUDY    79  78  97 SE6       29.93R
FALFURRIAS     CLEAR     79  77  94 SE3       29.92S
$$

...VICTORIA AREA OBSERVATIONS...

CITY           SKY/WX    TMP DP  RH WIND       PRES   REMARKS
VICTORIA       CLEAR     77  77 100 E3        29.96S
BEEVILLE       FAIR      72  72 100 SE3       29.94S FOG
PLEASANTON     MOCLDY    80  75  85 SE8       29.96S
SAN ANTONIO    MOCLDY    81  74  79 S10       29.98R
$$

...LAREDO AREA OBSERVATIONS...

CITY           SKY/WX    TMP DP  RH WIND       PRES   REMARKS
LAREDO         CLEAR     81  75  81 SE10      29.92S
COTULLA        MOCLDY    80  75  84 SE10      29.92F
DEL RIO        CLEAR     81  72  74 E9        29.90S
MCALLEN        CLEAR     82  77  84 SE8       29.92S HX  90
HEBBRONVILLE   NOT AVBL
$$

...OTHER TEXAS OBSERVATIONS...

CITY           SKY/WX    TMP DP  RH WIND       PRES   REMARKS
BROWNSVILLE    CLEAR     79  77  94 S5        29.92S
HOUSTON        PTCLDY    76  75  97 CALM      29.98R
COL. STATION   CLEAR     76  75  97 S5        29.98S
AUSTIN         CLOUDY    78  75  90 S6        29.98R
WACO           CLEAR     79  73  82 S12       29.97R
FORT WORTH     CLEAR     80  72  76 S7        29.96R
WICHITA FALLS  CLEAR     73  67  81 SE6       29.95R
LUBBOCK        PTCLDY    67  56  67 SE8       30.02R
EL PASO        MOCLDY    76  55  48 N9        30.00S
$$

...MARINE OBSERVATIONS...

STATION/POSITION TIME  SKY/WX   TEMP    WIND        PRES    VSBY  WAVE   SWELL
                                AIR SEA DIR/SP/G                  HT/PER HT/PER
                 (UTC)          (F)     (DEG/KT/KT) (MB)    (MI)  (FT/S) (FT/S)
PORT ARANSAS     1000            85 85  160/ 15/ 17 1014.0S
BUOY 90 E PORT A 0950            85 85  170/ 14/ 16 1014.1R         3/ 6
BUOY 45 SE BAFFI 0950            85 85  170/ 16/ 17 1013.0R         3/ 5
BUOY 200 E PT IS 0950            85 85  150/ 10/ 12 1014.9R         2/ 6   2/ 6
BUOY 15 E GALVES 0950            84 85  170/ 12/ 14 1015.0R         2/ 6   2/ 6
$$


USA.gov is the U.S. government's official web portal to all federal, state and local government web resources and services.